RYR59QZ EGGP-EYKA

Flight info

Callsign RYR59QZ
Flight time 2h 18m
Altitude 35000
Route BARTN L975 SONEX UL975 DESIG L603 LAMSO DCT BEDUM DCT HAM DCT BERIM L23 BINKA DCT OSKUD N858 BOKSU DCT ADIDU
Aircraft B738/M-SDE2E3FGHIRWXY/LB1

Departure

Time 2026-04-12 10:02
Airport Liverpool John Lennon Airport (EGGP)

Arrival

Time 2026-04-12 12:20
Airport Kaunas International Airport (EYKA)
Time Latitude Longitude Altitude Speed Heading
2026-04-12 09:08 53.33649 -2.85793 84 ft 0 kts 355°
2026-04-12 09:13 53.33650 -2.85793 84 ft 0 kts 355°
2026-04-12 09:50 53.33627 -2.85790 86 ft 3 kts 355°
2026-04-12 09:50 53.33605 -2.85794 86 ft 4 kts 57°
2026-04-12 09:50 53.33599 -2.85826 88 ft 2 kts 85°
2026-04-12 09:50 53.33598 -2.85865 88 ft 1 kts 85°
2026-04-12 09:51 53.33598 -2.85866 88 ft 0 kts 85°
2026-04-12 09:54 53.33598 -2.85862 88 ft 1 kts 85°
2026-04-12 09:54 53.33600 -2.85806 89 ft 8 kts 85°
2026-04-12 09:54 53.33605 -2.85712 84 ft 8 kts 85°
2026-04-12 09:54 53.33609 -2.85621 86 ft 8 kts 85°
2026-04-12 09:55 53.33604 -2.85535 86 ft 8 kts 131°
2026-04-12 09:55 53.33555 -2.85508 88 ft 7 kts 173°
2026-04-12 09:55 53.33510 -2.85480 87 ft 7 kts 121°
2026-04-12 09:55 53.33510 -2.85395 86 ft 7 kts 85°
2026-04-12 09:56 53.33513 -2.85335 83 ft 9 kts 85°
2026-04-12 09:57 53.33516 -2.85269 83 ft 12 kts 85°
2026-04-12 09:57 53.33524 -2.85075 85 ft 19 kts 86°
2026-04-12 09:57 53.33535 -2.84850 85 ft 19 kts 85°
2026-04-12 09:57 53.33545 -2.84627 79 ft 19 kts 85°
2026-04-12 09:58 53.33555 -2.84407 67 ft 19 kts 85°
2026-04-12 09:58 53.33565 -2.84193 77 ft 18 kts 85°
2026-04-12 09:58 53.33575 -2.83987 70 ft 18 kts 85°
2026-04-12 09:58 53.33584 -2.83773 68 ft 18 kts 86°
2026-04-12 09:59 53.33593 -2.83567 69 ft 18 kts 85°
2026-04-12 09:59 53.33593 -2.83380 68 ft 15 kts 109°
2026-04-12 09:59 53.33510 -2.83295 76 ft 15 kts 175°
2026-04-12 09:59 53.33444 -2.83316 71 ft 8 kts 239°
2026-04-12 10:00 53.33438 -2.83363 79 ft 0 kts 265°
2026-04-12 10:00 53.33429 -2.83556 75 ft 49 kts 265°
2026-04-12 10:00 53.33383 -2.84544 72 ft 119 kts 265°
2026-04-12 10:01 53.33293 -2.86121 409 ft 144 kts 261°
2026-04-12 10:01 53.33291 -2.86152 423 ft 144 kts 261°
2026-04-12 10:01 53.33268 -2.86432 527 ft 146 kts 261°
2026-04-12 10:02 53.33175 -2.88142 1380 ft 142 kts 261°
2026-04-12 10:02 53.33079 -2.89763 2280 ft 144 kts 262°
2026-04-12 10:02 53.33018 -2.91598 2716 ft 175 kts 271°
2026-04-12 10:02 53.33561 -2.93571 3109 ft 203 kts 306°
2026-04-12 10:03 53.34766 -2.94945 3746 ft 220 kts 334°
2026-04-12 10:03 53.36355 -2.95088 4272 ft 246 kts
2026-04-12 10:03 53.38048 -2.94246 4796 ft 259 kts 13°
2026-04-12 10:03 53.39773 -2.93277 5504 ft 266 kts 20°
2026-04-12 10:04 53.41276 -2.91319 6116 ft 288 kts 52°
2026-04-12 10:04 53.42116 -2.88223 6855 ft 296 kts 77°
2026-04-12 10:04 53.42531 -2.84823 7748 ft 299 kts 81°
2026-04-12 10:04 53.42877 -2.81359 8643 ft 303 kts 81°
2026-04-12 10:05 53.43234 -2.77855 9532 ft 308 kts 81°
2026-04-12 10:05 53.43615 -2.74291 10362 ft 311 kts 81°
2026-04-12 10:05 53.44008 -2.70705 11206 ft 314 kts 81°
2026-04-12 10:05 53.44406 -2.67095 12072 ft 316 kts 81°
2026-04-12 10:06 53.44807 -2.63455 12891 ft 321 kts 81°
2026-04-12 10:06 53.45225 -2.59639 13211 ft 344 kts 81°
2026-04-12 10:06 53.45674 -2.55578 13531 ft 363 kts 81°
2026-04-12 10:06 53.46146 -2.51368 14179 ft 369 kts 81°
2026-04-12 10:07 53.46620 -2.47128 14965 ft 371 kts 81°
2026-04-12 10:07 53.47095 -2.42852 15741 ft 374 kts 81°
2026-04-12 10:07 53.47561 -2.38533 16471 ft 378 kts 82°
2026-04-12 10:07 53.48022 -2.34165 17196 ft 382 kts 82°
2026-04-12 10:08 53.48484 -2.29758 17947 ft 386 kts 82°
2026-04-12 10:08 53.48952 -2.25301 18589 ft 389 kts 82°
2026-04-12 10:08 53.49422 -2.20818 19246 ft 393 kts 82°
2026-04-12 10:08 53.49897 -2.16272 19869 ft 396 kts 82°
2026-04-12 10:09 53.50376 -2.11690 20469 ft 400 kts 82°
2026-04-12 10:09 53.50861 -2.07060 21063 ft 404 kts 83°
2026-04-12 10:09 53.51348 -2.02387 21620 ft 408 kts 83°
2026-04-12 10:09 53.51837 -1.97665 22085 ft 414 kts 83°
2026-04-12 10:10 53.52236 -1.92891 22805 ft 410 kts 90°
2026-04-12 10:10 53.52249 -1.89727 23197 ft 409 kts 97°
2026-04-12 10:10 53.51939 -1.84984 23613 ft 409 kts 105°
2026-04-12 10:10 53.51225 -1.80369 23998 ft 409 kts 111°
2026-04-12 10:11 53.50388 -1.75777 24399 ft 413 kts 112°
2026-04-12 10:11 53.49543 -1.71147 24817 ft 416 kts 112°
2026-04-12 10:11 53.48708 -1.66469 25252 ft 419 kts 112°
2026-04-12 10:11 53.47877 -1.61752 25622 ft 423 kts 112°
2026-04-12 10:12 53.47040 -1.56997 26001 ft 426 kts 112°
2026-04-12 10:12 53.46188 -1.52229 26355 ft 429 kts 113°
2026-04-12 10:12 53.45318 -1.47417 26703 ft 432 kts 114°
2026-04-12 10:12 53.44439 -1.42564 27087 ft 436 kts 114°
2026-04-12 10:13 53.43557 -1.37692 27466 ft 438 kts 114°
2026-04-12 10:13 53.42668 -1.32789 27799 ft 441 kts 114°
2026-04-12 10:13 53.41770 -1.27849 28132 ft 444 kts 114°
2026-04-12 10:13 53.40887 -1.22885 28438 ft 447 kts 114°
2026-04-12 10:14 53.40011 -1.17871 28744 ft 449 kts 114°
2026-04-12 10:14 53.39113 -1.12919 28989 ft 450 kts 115°
2026-04-12 10:14 53.38186 -1.07899 29203 ft 452 kts 115°
2026-04-12 10:14 53.37250 -1.02862 29413 ft 454 kts 115°
2026-04-12 10:15 53.36308 -0.97801 29546 ft 457 kts 116°
2026-04-12 10:15 53.35360 -0.92696 29746 ft 460 kts 116°
2026-04-12 10:15 53.34415 -0.87590 30079 ft 457 kts 115°
2026-04-12 10:15 53.33475 -0.82520 30308 ft 458 kts 115°
2026-04-12 10:16 53.32524 -0.77414 30457 ft 460 kts 115°
2026-04-12 10:16 53.31569 -0.72310 30646 ft 461 kts 115°
2026-04-12 10:16 53.30621 -0.67249 30914 ft 459 kts 115°
2026-04-12 10:16 53.29664 -0.62159 31182 ft 458 kts 115°
2026-04-12 10:17 53.28706 -0.57092 31405 ft 458 kts 115°
2026-04-12 10:17 53.27745 -0.52012 31612 ft 459 kts 115°
2026-04-12 10:17 53.26779 -0.46920 31834 ft 459 kts 115°
2026-04-12 10:17 53.25815 -0.41845 32073 ft 458 kts 115°
2026-04-12 10:18 53.24859 -0.36782 32263 ft 458 kts 115°
2026-04-12 10:18 53.23896 -0.31697 32418 ft 459 kts 115°
2026-04-12 10:18 53.22929 -0.26612 32626 ft 459 kts 115°
2026-04-12 10:18 53.21955 -0.21548 32875 ft 458 kts 115°
2026-04-12 10:19 53.20978 -0.16493 33113 ft 457 kts 115°
2026-04-12 10:19 53.19999 -0.11439 33308 ft 457 kts 115°
2026-04-12 10:19 53.19018 -0.06385 33488 ft 458 kts 115°
2026-04-12 10:19 53.18038 -0.01338 33683 ft 457 kts 115°
2026-04-12 10:20 53.17059 0.03701 33824 ft 457 kts 116°
2026-04-12 10:20 53.16079 0.08745 33974 ft 457 kts 116°
2026-04-12 10:20 53.15097 0.13787 34113 ft 458 kts 116°
2026-04-12 10:20 53.14113 0.18830 34260 ft 458 kts 116°
2026-04-12 10:21 53.13128 0.23869 34430 ft 457 kts 116°
2026-04-12 10:21 53.12141 0.28902 34571 ft 457 kts 116°
2026-04-12 10:21 53.11164 0.33868 34704 ft 457 kts 116°
2026-04-12 10:22 53.09175 0.43937 34820 ft 459 kts 116°
2026-04-12 10:22 53.07176 0.54013 34793 ft 457 kts 116°
2026-04-12 10:23 53.05181 0.64026 34831 ft 455 kts 116°
2026-04-12 10:23 53.03177 0.74012 34847 ft 455 kts 117°
2026-04-12 10:24 53.01166 0.83991 34852 ft 455 kts 117°
2026-04-12 10:24 52.99153 0.93941 34844 ft 454 kts 117°
2026-04-12 10:25 52.97312 1.04017 34834 ft 462 kts 111°
2026-04-12 10:25 52.96102 1.14504 34860 ft 466 kts 109°
2026-04-12 10:26 52.94960 1.25095 34876 ft 468 kts 109°
2026-04-12 10:26 52.93755 1.35712 34875 ft 469 kts 109°
2026-04-12 10:27 52.92500 1.46360 34881 ft 471 kts 110°
2026-04-12 10:27 52.91226 1.57015 34852 ft 472 kts 110°
2026-04-12 10:28 52.89942 1.67682 34876 ft 473 kts 110°
2026-04-12 10:28 52.88647 1.78368 34885 ft 473 kts 110°
2026-04-12 10:29 52.87342 1.89058 34892 ft 474 kts 110°
2026-04-12 10:29 52.86027 1.99737 34892 ft 473 kts 111°
2026-04-12 10:30 52.84713 2.10325 34906 ft 471 kts 111°
2026-04-12 10:30 52.83386 2.20943 34902 ft 471 kts 112°
2026-04-12 10:31 52.82050 2.31541 34922 ft 471 kts 112°
2026-04-12 10:31 52.80707 2.42125 34921 ft 471 kts 112°
2026-04-12 10:32 52.79351 2.52720 34871 ft 470 kts 113°
2026-04-12 10:32 52.77984 2.63269 34928 ft 470 kts 113°
2026-04-12 10:33 52.76608 2.73831 34938 ft 471 kts 113°
2026-04-12 10:33 52.75227 2.84416 34948 ft 473 kts 113°
2026-04-12 10:34 52.74008 2.95140 34931 ft 485 kts 104°
2026-04-12 10:34 52.73990 3.00769 34945 ft 497 kts 94°
2026-04-12 10:34 52.74490 3.06457 34910 ft 505 kts 83°
2026-04-12 10:35 52.76530 3.17598 34936 ft 509 kts 78°
2026-04-12 10:35 52.78718 3.28713 34943 ft 509 kts 78°
2026-04-12 10:36 52.80846 3.39862 34942 ft 509 kts 79°
2026-04-12 10:36 52.82918 3.51051 34945 ft 509 kts 80°
2026-04-12 10:37 52.84964 3.62255 34935 ft 508 kts 80°
2026-04-12 10:37 52.86998 3.73462 34960 ft 509 kts 80°
2026-04-12 10:38 52.89029 3.84700 34978 ft 510 kts 80°
2026-04-12 10:38 52.91042 3.95902 34974 ft 510 kts 80°
2026-04-12 10:39 52.93057 4.07178 34929 ft 511 kts 80°
2026-04-12 10:39 52.95064 4.18481 34984 ft 511 kts 80°
2026-04-12 10:40 52.97059 4.29794 34982 ft 511 kts 80°
2026-04-12 10:40 52.99046 4.41125 34976 ft 511 kts 80°
2026-04-12 10:41 53.01019 4.52452 34982 ft 511 kts 80°
2026-04-12 10:41 53.02983 4.63802 34984 ft 511 kts 81°
2026-04-12 10:42 53.04921 4.75071 34994 ft 511 kts 81°
2026-04-12 10:42 53.06862 4.86431 34991 ft 510 kts 81°
2026-04-12 10:43 53.09748 5.03458 34988 ft 509 kts 81°
2026-04-12 10:43 53.11654 5.14793 34968 ft 507 kts 81°
2026-04-12 10:44 53.13541 5.26088 34986 ft 506 kts 81°
2026-04-12 10:44 53.15403 5.37319 34996 ft 506 kts 81°
2026-04-12 10:45 53.17267 5.48632 34995 ft 506 kts 81°
2026-04-12 10:45 53.19120 5.59950 35001 ft 506 kts 81°
2026-04-12 10:46 53.20966 5.71292 35018 ft 505 kts 81°
2026-04-12 10:46 53.22795 5.82613 35013 ft 506 kts 81°
2026-04-12 10:47 53.24617 5.93971 35023 ft 506 kts 81°
2026-04-12 10:47 53.26429 6.05341 35014 ft 506 kts 82°
2026-04-12 10:48 53.28230 6.16719 34962 ft 507 kts 81°
2026-04-12 10:48 53.30018 6.28081 34999 ft 505 kts 81°
2026-04-12 10:49 53.31795 6.39465 35012 ft 506 kts 82°
2026-04-12 10:49 53.33560 6.50844 35014 ft 506 kts 82°
2026-04-12 10:50 53.35239 6.62185 35020 ft 503 kts 85°
2026-04-12 10:50 53.36523 6.73667 34993 ft 500 kts 87°
2026-04-12 10:51 53.37684 6.85133 35027 ft 499 kts 87°
2026-04-12 10:51 53.38864 6.96608 35041 ft 500 kts 87°
2026-04-12 10:52 53.40065 7.08065 35050 ft 500 kts 87°
2026-04-12 10:52 53.41257 7.19439 35049 ft 500 kts 87°
2026-04-12 10:53 53.42448 7.30921 35050 ft 499 kts 87°
2026-04-12 10:53 53.43624 7.42387 35038 ft 499 kts 87°
2026-04-12 10:54 53.44789 7.53864 35044 ft 499 kts 87°
2026-04-12 10:54 53.45943 7.65347 35048 ft 499 kts 87°
2026-04-12 10:55 53.46894 7.74895 35044 ft 499 kts 87°
2026-04-12 10:55 53.48025 7.86368 35050 ft 498 kts 87°
2026-04-12 10:56 53.49325 7.99715 35048 ft 498 kts 87°
2026-04-12 10:56 53.50248 8.09279 35041 ft 499 kts 87°
2026-04-12 10:57 53.51349 8.20795 35041 ft 499 kts 87°
2026-04-12 10:57 53.52439 8.32317 34995 ft 499 kts 86°
2026-04-12 10:58 53.53516 8.43818 35036 ft 498 kts 86°
2026-04-12 10:58 53.54581 8.55327 35044 ft 498 kts 87°
2026-04-12 10:59 53.55634 8.66840 35045 ft 498 kts 87°
2026-04-12 10:59 53.56678 8.78373 35043 ft 499 kts 87°
2026-04-12 11:00 53.57712 8.89916 35031 ft 498 kts 86°
2026-04-12 11:00 53.58733 9.01451 35040 ft 498 kts 86°
2026-04-12 11:01 53.59743 9.12985 35047 ft 499 kts 86°
2026-04-12 11:01 53.60745 9.24564 35042 ft 499 kts 86°
2026-04-12 11:02 53.61734 9.36131 35045 ft 499 kts 87°
2026-04-12 11:02 53.62713 9.47710 35076 ft 498 kts 86°
2026-04-12 11:03 53.63673 9.59198 35068 ft 499 kts 86°
2026-04-12 11:03 53.64628 9.70779 35076 ft 498 kts 86°
2026-04-12 11:04 53.65571 9.82351 35074 ft 498 kts 86°
2026-04-12 11:04 53.66504 9.93932 35076 ft 498 kts 86°
2026-04-12 11:05 53.67424 10.05496 35080 ft 498 kts 87°
2026-04-12 11:05 53.68334 10.17068 35072 ft 497 kts 87°
2026-04-12 11:06 53.69012 10.28655 35065 ft 494 kts 91°
2026-04-12 11:06 53.69380 10.40234 35056 ft 493 kts 92°
2026-04-12 11:07 53.69725 10.51800 35044 ft 493 kts 91°
2026-04-12 11:07 53.70100 10.63362 35050 ft 494 kts 91°
2026-04-12 11:08 53.70480 10.74871 35052 ft 494 kts 91°
2026-04-12 11:08 53.70853 10.86466 35051 ft 495 kts 91°
2026-04-12 11:09 53.71214 10.98074 35053 ft 496 kts 91°
2026-04-12 11:09 53.71562 11.09716 35050 ft 495 kts 90°
2026-04-12 11:10 53.71900 11.21328 35055 ft 495 kts 90°
2026-04-12 11:10 53.72226 11.32948 35063 ft 496 kts 91°
2026-04-12 11:11 53.72543 11.44589 35074 ft 496 kts 91°
2026-04-12 11:11 53.72844 11.56234 35037 ft 496 kts 90°
2026-04-12 11:12 53.73132 11.67814 35052 ft 492 kts 90°
2026-04-12 11:12 53.73409 11.79315 35065 ft 488 kts 90°
2026-04-12 11:13 53.73664 11.90736 35070 ft 486 kts 91°
2026-04-12 11:13 53.73895 12.02078 35074 ft 485 kts 91°
2026-04-12 11:14 53.74120 12.13453 35070 ft 484 kts 90°
2026-04-12 11:14 53.74384 12.24799 35068 ft 484 kts 90°
2026-04-12 11:15 53.74659 12.36168 35089 ft 484 kts 90°
2026-04-12 11:15 53.74913 12.47526 35072 ft 484 kts 90°
2026-04-12 11:16 53.75072 12.58899 35074 ft 484 kts 91°
2026-04-12 11:16 53.75202 12.70283 35064 ft 485 kts 91°
2026-04-12 11:17 53.75333 12.81675 35071 ft 485 kts 90°
2026-04-12 11:17 53.75500 12.93076 35079 ft 486 kts 90°
2026-04-12 11:18 53.75672 13.04412 35081 ft 486 kts 90°
2026-04-12 11:18 53.75828 13.15832 35063 ft 486 kts 90°
2026-04-12 11:19 53.75969 13.27268 35085 ft 486 kts 90°
2026-04-12 11:19 53.76100 13.38678 35088 ft 486 kts 90°
2026-04-12 11:20 53.76222 13.50094 35085 ft 485 kts 90°
2026-04-12 11:20 53.76317 13.61499 35084 ft 484 kts 92°
2026-04-12 11:21 53.76189 13.72794 35085 ft 483 kts 92°
2026-04-12 11:21 53.76177 13.84139 35094 ft 482 kts 91°
2026-04-12 11:22 53.76134 13.95455 35096 ft 481 kts 91°
2026-04-12 11:22 53.76055 14.06761 35104 ft 481 kts 91°
2026-04-12 11:23 53.75974 14.18069 35104 ft 481 kts 91°
2026-04-12 11:23 53.75890 14.29364 35098 ft 481 kts 90°
2026-04-12 11:24 53.75999 14.40663 35107 ft 481 kts 88°
2026-04-12 11:24 53.76206 14.51966 35104 ft 481 kts 88°
2026-04-12 11:25 53.76386 14.63286 35108 ft 482 kts 88°
2026-04-12 11:25 53.76531 14.74620 35107 ft 483 kts 89°
2026-04-12 11:26 53.76654 14.85895 35113 ft 483 kts 88°
2026-04-12 11:26 53.76766 14.97250 35108 ft 483 kts 88°
2026-04-12 11:27 53.76868 15.08605 35122 ft 483 kts 88°
2026-04-12 11:27 53.76960 15.19941 35128 ft 482 kts 88°
2026-04-12 11:28 53.77042 15.31272 35130 ft 482 kts 89°
2026-04-12 11:28 53.77113 15.42593 35141 ft 481 kts 89°
2026-04-12 11:29 53.77173 15.53891 35137 ft 481 kts 89°
2026-04-12 11:29 53.77223 15.65194 35141 ft 480 kts 89°
2026-04-12 11:30 53.77261 15.76482 35137 ft 480 kts 89°
2026-04-12 11:30 53.77289 15.87754 35140 ft 479 kts 88°
2026-04-12 11:31 53.77307 15.99020 35140 ft 479 kts 88°
2026-04-12 11:31 53.77314 16.10207 35144 ft 479 kts 89°
2026-04-12 11:32 53.77311 16.21460 35150 ft 479 kts 89°
2026-04-12 11:32 53.77297 16.32720 35153 ft 479 kts 89°
2026-04-12 11:33 53.77272 16.43977 35161 ft 479 kts 88°
2026-04-12 11:33 53.77237 16.55256 35158 ft 480 kts 88°
2026-04-12 11:34 53.77192 16.66548 35157 ft 480 kts 88°
2026-04-12 11:34 53.77135 16.77811 35163 ft 480 kts 89°
2026-04-12 11:35 53.77068 16.89123 35166 ft 480 kts 89°
2026-04-12 11:35 53.76990 17.00402 35177 ft 480 kts 88°
2026-04-12 11:36 53.76903 17.11604 35171 ft 480 kts 88°
2026-04-12 11:36 53.76804 17.22890 35189 ft 480 kts 88°
2026-04-12 11:37 53.76695 17.34170 35177 ft 480 kts 88°
2026-04-12 11:37 53.76575 17.45430 35188 ft 479 kts 88°
2026-04-12 11:38 53.76445 17.56697 35185 ft 479 kts 88°
2026-04-12 11:38 53.76304 17.67940 35177 ft 478 kts 88°
2026-04-12 11:39 53.76153 17.79164 35186 ft 477 kts 88°
2026-04-12 11:39 53.75992 17.90361 35200 ft 476 kts 88°
2026-04-12 11:40 53.75821 18.01551 35220 ft 476 kts 88°
2026-04-12 11:40 53.75641 18.12731 35198 ft 475 kts 87°
2026-04-12 11:41 53.75449 18.23887 35198 ft 475 kts 87°
2026-04-12 11:41 53.75248 18.34951 35207 ft 474 kts 88°
2026-04-12 11:42 53.75037 18.46077 35209 ft 473 kts 88°
2026-04-12 11:43 53.74701 18.62745 35222 ft 473 kts 87°
2026-04-12 11:43 53.74504 18.72048 35205 ft 473 kts 87°
2026-04-12 11:44 53.74259 18.83127 35203 ft 472 kts 87°
2026-04-12 11:44 53.74005 18.94138 35204 ft 472 kts 88°
2026-04-12 11:45 53.73740 19.05201 35201 ft 471 kts 88°
2026-04-12 11:45 53.73465 19.16263 35214 ft 471 kts 88°
2026-04-12 11:46 53.73180 19.27306 35204 ft 470 kts 88°
2026-04-12 11:46 53.72886 19.38316 35200 ft 468 kts 88°
2026-04-12 11:47 53.72584 19.49264 35199 ft 466 kts 88°
2026-04-12 11:47 53.72274 19.60189 35201 ft 465 kts 88°
2026-04-12 11:48 53.71963 19.71098 35204 ft 464 kts 85°
2026-04-12 11:48 53.72748 19.81706 35196 ft 448 kts 66°
2026-04-12 11:49 53.74713 19.91652 35199 ft 447 kts 64°
2026-04-12 11:49 53.76700 20.01623 35201 ft 448 kts 65°
2026-04-12 11:50 53.78642 20.11654 35208 ft 449 kts 65°
2026-04-12 11:50 53.80550 20.21658 35224 ft 451 kts 65°
2026-04-12 11:51 53.82469 20.31777 35216 ft 452 kts 65°
2026-04-12 11:51 53.84381 20.41910 35211 ft 451 kts 65°
2026-04-12 11:52 53.86282 20.52036 35204 ft 450 kts 65°
2026-04-12 11:52 53.88164 20.62145 35202 ft 449 kts 65°
2026-04-12 11:53 53.90031 20.72228 35207 ft 447 kts 65°
2026-04-12 11:53 53.91883 20.82279 35208 ft 446 kts 65°
2026-04-12 11:54 53.93722 20.92311 35215 ft 445 kts 65°
2026-04-12 11:54 53.95557 21.02370 35169 ft 446 kts 65°
2026-04-12 11:54 53.96472 21.07407 34821 ft 445 kts 65°
2026-04-12 11:55 53.97381 21.12428 34497 ft 450 kts 65°
2026-04-12 11:55 53.98324 21.17610 34106 ft 466 kts 65°
2026-04-12 11:55 53.99281 21.22913 33600 ft 469 kts 65°
2026-04-12 11:55 54.00227 21.28212 33159 ft 467 kts 65°
2026-04-12 11:56 54.01169 21.33466 32712 ft 464 kts 64°
2026-04-12 11:56 54.02098 21.38634 32285 ft 461 kts 64°
2026-04-12 11:56 54.03034 21.43835 31867 ft 459 kts 64°
2026-04-12 11:56 54.03981 21.49080 31481 ft 472 kts 63°
2026-04-12 11:57 54.04968 21.54513 31032 ft 487 kts 64°
2026-04-12 11:57 54.05953 21.60019 30611 ft 484 kts 63°
2026-04-12 11:57 54.06914 21.65475 30122 ft 479 kts 63°
2026-04-12 11:57 54.07867 21.70904 29614 ft 474 kts 63°
2026-04-12 11:58 54.08805 21.76251 29137 ft 469 kts 63°
2026-04-12 11:58 54.09735 21.81551 28674 ft 465 kts 63°
2026-04-12 11:58 54.10655 21.86792 28221 ft 461 kts 63°
2026-04-12 11:58 54.11570 21.92011 27783 ft 457 kts 63°
2026-04-12 11:59 54.12475 21.97183 27332 ft 454 kts 63°
2026-04-12 11:59 54.13373 22.02330 26892 ft 452 kts 63°
2026-04-12 11:59 54.14265 22.07454 26444 ft 450 kts 63°
2026-04-12 11:59 54.15149 22.12553 26013 ft 447 kts 63°
2026-04-12 12:00 54.16026 22.17630 25554 ft 446 kts 64°
2026-04-12 12:00 54.16891 22.22686 25112 ft 443 kts 63°
2026-04-12 12:00 54.17754 22.27737 24686 ft 441 kts 63°
2026-04-12 12:00 54.18603 22.32733 24210 ft 435 kts 63°
2026-04-12 12:01 54.19435 22.37653 23766 ft 428 kts 63°
2026-04-12 12:01 54.20254 22.42506 23295 ft 422 kts 63°
2026-04-12 12:01 54.21060 22.47281 22835 ft 415 kts 64°
2026-04-12 12:01 54.21850 22.51973 22395 ft 408 kts 64°
2026-04-12 12:02 54.22629 22.56600 21969 ft 402 kts 65°
2026-04-12 12:02 54.23400 22.61184 21571 ft 401 kts 65°
2026-04-12 12:02 54.24175 22.65784 21170 ft 402 kts 66°
2026-04-12 12:02 54.24940 22.70355 20761 ft 398 kts 67°
2026-04-12 12:03 54.25690 22.74872 20359 ft 392 kts 68°
2026-04-12 12:03 54.26428 22.79325 19960 ft 387 kts 68°
2026-04-12 12:03 54.27158 22.83734 19575 ft 383 kts 69°
2026-04-12 12:03 54.27878 22.88094 19180 ft 379 kts 69°
2026-04-12 12:04 54.28580 22.92351 18827 ft 374 kts 71°
2026-04-12 12:04 54.29283 22.96619 18425 ft 371 kts 71°
2026-04-12 12:04 54.29975 23.00849 17986 ft 367 kts 71°
2026-04-12 12:04 54.30699 23.05020 17576 ft 362 kts 66°
2026-04-12 12:05 54.31825 23.08815 17209 ft 354 kts 54°
2026-04-12 12:05 54.33190 23.12291 16824 ft 351 kts 53°
2026-04-12 12:05 54.34569 23.15748 16441 ft 350 kts 53°
2026-04-12 12:05 54.35936 23.19191 16066 ft 349 kts 53°
2026-04-12 12:06 54.37293 23.22635 15697 ft 348 kts 54°
2026-04-12 12:06 54.38640 23.26080 15326 ft 347 kts 54°
2026-04-12 12:06 54.39978 23.29520 14955 ft 347 kts 54°
2026-04-12 12:06 54.41311 23.32961 14583 ft 346 kts 54°
2026-04-12 12:07 54.42642 23.36405 14209 ft 345 kts 54°
2026-04-12 12:07 54.43961 23.39826 13809 ft 344 kts 54°
2026-04-12 12:07 54.45279 23.43248 13406 ft 341 kts 54°
2026-04-12 12:07 54.46581 23.46636 13030 ft 338 kts 54°
2026-04-12 12:08 54.47873 23.50000 12663 ft 336 kts 54°
2026-04-12 12:08 54.49155 23.53340 12293 ft 334 kts 55°
2026-04-12 12:08 54.50427 23.56663 11927 ft 332 kts 55°
2026-04-12 12:08 54.51695 23.59972 11586 ft 330 kts 54°
2026-04-12 12:09 54.53245 23.62827 11187 ft 327 kts 34°
2026-04-12 12:09 54.55252 23.64603 10869 ft 325 kts 20°
2026-04-12 12:09 54.57409 23.65656 10524 ft 318 kts 15°
2026-04-12 12:09 54.59499 23.66580 10168 ft 303 kts 16°
2026-04-12 12:10 54.61490 23.67490 9819 ft 289 kts 17°
2026-04-12 12:10 54.63391 23.68385 9523 ft 276 kts 17°
2026-04-12 12:10 54.65195 23.69246 9227 ft 269 kts 17°
2026-04-12 12:10 54.67013 23.70117 8939 ft 267 kts 17°
2026-04-12 12:11 54.68771 23.70962 8658 ft 265 kts 17°
2026-04-12 12:11 54.70554 23.71819 8377 ft 266 kts 17°
2026-04-12 12:11 54.72330 23.72674 8090 ft 265 kts 17°
2026-04-12 12:11 54.74168 23.73047 7777 ft 269 kts 354°
2026-04-12 12:12 54.75996 23.72358 7523 ft 268 kts 348°
2026-04-12 12:12 54.77811 23.71614 7218 ft 268 kts 349°
2026-04-12 12:12 54.79627 23.70879 6933 ft 268 kts 350°
2026-04-12 12:12 54.81443 23.70142 6640 ft 267 kts 347°
2026-04-12 12:13 54.83157 23.68904 6297 ft 268 kts 334°
2026-04-12 12:13 54.84790 23.67347 5843 ft 265 kts 334°
2026-04-12 12:13 54.86388 23.65854 5531 ft 257 kts 334°
2026-04-12 12:13 54.87960 23.64523 5234 ft 246 kts 346°
2026-04-12 12:14 54.89585 23.64466 5008 ft 229 kts 19°
2026-04-12 12:14 54.90965 23.65744 4735 ft 224 kts 43°
2026-04-12 12:14 54.91952 23.67751 4453 ft 221 kts 61°
2026-04-12 12:14 54.92690 23.70087 4204 ft 220 kts 63°
2026-04-12 12:15 54.93389 23.72421 3960 ft 215 kts 64°
2026-04-12 12:15 54.94071 23.74695 3688 ft 209 kts 64°
2026-04-12 12:15 54.94702 23.76916 3428 ft 201 kts 72°
2026-04-12 12:15 54.94983 23.79250 3174 ft 194 kts 84°
2026-04-12 12:16 54.95109 23.81545 2946 ft 187 kts 85°
2026-04-12 12:16 54.95213 23.83767 2709 ft 182 kts 85°
2026-04-12 12:16 54.95313 23.85935 2526 ft 177 kts 85°
2026-04-12 12:16 54.95411 23.88036 2332 ft 171 kts 85°
2026-04-12 12:17 54.95505 23.90051 2125 ft 161 kts 85°
2026-04-12 12:17 54.95594 23.91942 1902 ft 151 kts 85°
2026-04-12 12:17 54.95676 23.93670 1717 ft 138 kts 86°
2026-04-12 12:17 54.95754 23.95294 1544 ft 135 kts 86°
2026-04-12 12:18 54.95830 23.96929 1376 ft 137 kts 85°
2026-04-12 12:18 54.95913 23.98613 1183 ft 138 kts 85°
2026-04-12 12:18 54.95990 24.00294 979 ft 141 kts 84°
2026-04-12 12:18 54.96074 24.01961 800 ft 137 kts 84°
2026-04-12 12:19 54.96147 24.03586 640 ft 136 kts 85°
2026-04-12 12:19 54.96223 24.05212 460 ft 133 kts 83°
2026-04-12 12:19 54.96301 24.06792 273 ft 129 kts 85°
2026-04-12 12:19 54.96369 24.08186 268 ft 102 kts 85°
2026-04-12 12:20 54.96419 24.09184 265 ft 60 kts 85°
2026-04-12 12:20 54.96439 24.09567 266 ft 12 kts 85°
2026-04-12 12:20 54.96482 24.09665 267 ft 11 kts 10°
2026-04-12 12:20 54.96559 24.09656 267 ft 11 kts 355°
2026-04-12 12:21 54.96622 24.09602 267 ft 11 kts 296°
2026-04-12 12:21 54.96624 24.09475 267 ft 11 kts 264°
2026-04-12 12:21 54.96616 24.09320 267 ft 15 kts 265°
2026-04-12 12:21 54.96607 24.09114 267 ft 19 kts 265°
2026-04-12 12:22 54.96595 24.08867 267 ft 21 kts 265°
2026-04-12 12:22 54.96584 24.08624 267 ft 19 kts 265°
2026-04-12 12:22 54.96574 24.08408 267 ft 18 kts 265°
2026-04-12 12:22 54.96563 24.08217 267 ft 14 kts 258°
2026-04-12 12:23 54.96544 24.08106 267 ft 4 kts 252°
2026-04-12 12:23 54.96535 24.08054 267 ft 7 kts 253°
2026-04-12 12:23 54.96521 24.07909 267 ft 18 kts 265°
2026-04-12 12:23 54.96509 24.07666 267 ft 20 kts 265°
2026-04-12 12:24 54.96499 24.07454 267 ft 14 kts 265°
2026-04-12 12:24 54.96508 24.07301 267 ft 9 kts 287°
2026-04-12 12:24 54.96508 24.07195 267 ft 8 kts 277°
2026-04-12 12:24 54.96539 24.07163 267 ft 5 kts 352°
2026-04-12 12:25 54.96576 24.07156 267 ft 4 kts 354°
2026-04-12 12:25 54.96597 24.07180 267 ft 4 kts 77°
2026-04-12 12:25 54.96592 24.07230 267 ft 3 kts 103°
2026-04-12 12:25 54.96591 24.07238 267 ft 0 kts 103°